TimeMST,TemperatureF,Dew PointF,Humidity,Sea Level PressureIn,VisibilityMPH,Wind Direction,Wind SpeedMPH,Gust SpeedMPH,PrecipitationIn,Events,Conditions,WindDirDegrees,DateUTC
12:52 AM,33.1,30.0,89,30.28,10.0,North,3.5,-,N/A,,Clear,10,2012-11-05 07:52:00
1:52 AM,30.0,27.0,88,30.28,10.0,Calm,Calm,-,N/A,,Clear,0,2012-11-05 08:52:00
2:52 AM,27.0,26.1,96,30.28,10.0,Calm,Calm,-,N/A,,Clear,0,2012-11-05 09:52:00
3:19 AM,24.8,24.8,100,30.23,1.2,Calm,Calm,-,N/A,,Partly Cloudy,0,2012-11-05 10:19:00
3:29 AM,23.0,21.2,93,30.23,5.0,Calm,Calm,-,N/A,,Scattered Clouds,0,2012-11-05 10:29:00
3:41 AM,24.8,21.2,86,30.23,10.0,Calm,Calm,-,N/A,,Mostly Cloudy,0,2012-11-05 10:41:00
3:52 AM,26.1,24.1,92,30.28,7.0,Calm,Calm,-,N/A,,Mostly Cloudy,0,2012-11-05 10:52:00
4:52 AM,30.0,28.9,96,30.27,10.0,Calm,Calm,-,N/A,,Overcast,0,2012-11-05 11:52:00
5:40 AM,30.2,28.4,93,30.20,10.0,Calm,Calm,-,N/A,,Scattered Clouds,0,2012-11-05 12:40:00
5:52 AM,28.0,27.0,96,30.27,7.0,Calm,Calm,-,N/A,,Clear,0,2012-11-05 12:52:00
6:35 AM,26.6,24.8,93,30.19,3.0,WNW,3.5,-,N/A,,Scattered Clouds,290,2012-11-05 13:35:00
6:52 AM,27.0,25.0,92,30.26,10.0,Calm,Calm,-,N/A,,Partly Cloudy,0,2012-11-05 13:52:00
7:52 AM,30.9,28.9,92,30.24,10.0,Calm,Calm,-,N/A,,Overcast,0,2012-11-05 14:52:00
8:52 AM,36.0,33.1,89,30.23,10.0,Calm,Calm,-,N/A,,Overcast,0,2012-11-05 15:52:00
9:52 AM,45.0,36.0,71,30.19,10.0,WSW,4.6,-,N/A,,Overcast,240,2012-11-05 16:52:00
10:52 AM,50.0,36.0,59,30.15,10.0,WSW,3.5,-,0.32,,Overcast,240,2012-11-05 17:52:00
11:52 AM,54.0,35.1,49,30.09,10.0,WSW,6.9,-,N/A,,Scattered Clouds,240,2012-11-05 18:52:00
12:52 PM,57.0,35.1,44,30.06,10.0,SW,9.2,-,N/A,,Clear,230,2012-11-05 19:52:00
1:52 PM,57.9,36.0,44,30.03,10.0,West,9.2,-,N/A,,Clear,260,2012-11-05 20:52:00
2:52 PM,60.1,36.0,41,30.02,10.0,WSW,11.5,-,N/A,,Clear,250,2012-11-05 21:52:00
3:52 PM,57.0,36.0,45,30.02,10.0,WSW,4.6,-,N/A,,Clear,250,2012-11-05 22:52:00
4:52 PM,48.9,36.0,61,30.02,10.0,Calm,Calm,-,N/A,,Clear,0,2012-11-05 23:52:00
5:52 PM,46.0,35.1,66,30.04,10.0,Calm,Calm,-,N/A,,Scattered Clouds,0,2012-11-06 00:52:00
6:52 PM,46.9,36.0,66,30.05,10.0,West,3.5,-,N/A,,Overcast,280,2012-11-06 01:52:00
7:52 PM,46.9,37.0,68,30.05,10.0,Calm,Calm,-,N/A,,Overcast,0,2012-11-06 02:52:00
8:52 PM,48.0,36.0,63,30.03,10.0,West,5.8,-,N/A,,Scattered Clouds,280,2012-11-06 03:52:00
9:52 PM,51.1,36.0,56,30.06,10.0,NNW,12.7,-,N/A,,Clear,330,2012-11-06 04:52:00
10:52 PM,51.1,37.9,61,30.05,10.0,NNW,6.9,-,N/A,,Clear,340,2012-11-06 05:52:00
11:52 PM,50.0,39.0,66,30.06,10.0,NW,8.1,-,N/A,,Overcast,320,2012-11-06 06:52:00